GW3646 Weather Reports


Display with metric or nautical units.
time (UTC)temp
F
wind
direction
speed
MPH
gust
MPH
rain 1hr
in
rain 24hr
in
rain mn
in
humidity
%
barometer
mb
20260903160020 87 252 2.0 9.0 0.00 0.00 0.00 62 1013.9
20260903155502 86 272 2.0 11.0 0.00 0.00 0.00 62 1013.9
20260903155005 86 283 3.0 11.0 0.00 0.00 0.00 62 1014.0
20260903154516 86 277 2.0 10.0 0.00 0.00 0.00 62 1013.9
20260903154008 86 297 4.0 10.0 0.00 0.00 0.00 63 1014.1
20260903153507 86 282 3.0 9.0 0.00 0.00 0.00 62 1014.1
20260903153021 85 270 2.0 9.0 0.00 0.00 0.00 64 1014.0
20260903152510 85 281 2.0 11.0 0.00 0.00 0.00 65 1014.1
20260903152010 84 111 2.0 11.0 0.00 0.00 0.00 66 1014.0
20260903151528 84 270 3.0 10.0 0.00 0.00 0.00 67 1013.9
20260903151010 84 263 2.0 9.0 0.00 0.00 0.00 67 1013.9
20260903150513 84 269 3.0 9.0 0.00 0.00 0.00 67 1013.8
20260903150033 83 249 2.0 8.0 0.00 0.00 0.00 68 1013.8
20260903145517 83 244 3.0 8.0 0.00 0.00 0.00 67 1013.9
20260903145014 83 279 2.0 8.0 0.00 0.00 0.00 68 1013.9
20260903144511 82 263 3.0 12.0 0.00 0.00 0.00 68 1014.1
20260903144004 82 279 2.0 12.0 0.00 0.00 0.00 69 1014.0
20260903143506 82 170 2.0 12.0 0.00 0.00 0.00 71 1013.9
20260903143021 81 238 3.0 12.0 0.00 0.00 0.00 71 1014.0
20260903142506 81 277 1.0 7.0 0.00 0.00 0.00 71 1014.0
20260903142008 81 277 3.0 7.0 0.00 0.00 0.00 71 1014.1
20260903141519 80 242 2.0 11.0 0.00 0.00 0.00 72 1014.1
20260903141011 80 226 2.0 11.0 0.00 0.00 0.00 72 1014.1
20260903140511 80 261 2.0 7.0 0.00 0.00 0.00 73 1014.1
20260903140029 79 264 2.0 7.0 0.00 0.00 0.00 73 1014.3
20260903135512 79 284 2.0 7.0 0.00 0.00 0.00 74 1014.3
20260903135017 78 219 2.0 8.0 0.00 0.00 0.00 75 1014.3
20260903134528 78 237 3.0 8.0 0.00 0.00 0.00 75 1014.3
20260903134015 78 273 1.0 9.0 0.00 0.00 0.00 75 1014.2
20260903133519 78 136 0.0 9.0 0.00 0.00 0.00 75 1014.3
20260903133012 77 246 2.0 7.0 0.00 0.00 0.00 76 1014.3
20260903132504 77 227 2.0 7.0 0.00 0.00 0.00 75 1014.2
20260903132008 77 200 2.0 7.0 0.00 0.00 0.00 76 1014.2
20260903131518 77 228 2.0 7.0 0.00 0.00 0.00 77 1014.2
20260903131007 76 279 1.0 7.0 0.00 0.00 0.00 77 1014.2
20260903130512 76 257 0.0 6.0 0.00 0.00 0.00 78 1014.2
20260903130027 76 234 1.0 6.0 0.00 0.00 0.00 78 1014.2
20260903125513 75 301 0.0 3.0 0.00 0.00 0.00 78 1014.1
20260903125012 75 157 0.0 3.0 0.00 0.00 0.00 78 1014.1
20260903124528 75 259 0.0 3.0 0.00 0.00 0.00 78 1014.1
20260903124014 75 204 0.0 4.0 0.00 0.00 0.00 78 1014.1
20260903123517 75 217 0.0 4.0 0.00 0.00 0.00 78 1014.0
20260903123032 75 275 1.0 4.0 0.00 0.00 0.00 78 1013.9
20260903122518 75 285 0.0 2.0 0.00 0.00 0.00 78 1013.8
20260903122018 75 279 0.0 1.0 0.00 0.00 0.00 77 1013.7
20260903121516 75 226 0.0 2.0 0.00 0.00 0.00 78 1013.7
20260903121002 75 209 0.0 2.0 0.00 0.00 0.00 77 1013.6
20260903120503 75 250 0.0 2.0 0.00 0.00 0.00 78 1013.7
20260903120004 75 153 0.0 4.0 0.00 0.00 0.00 78 1013.7
20260903115506 74 247 0.0 4.0 0.00 0.00 0.00 77 1013.6
20260903115002 74 213 0.0 1.0 0.00 0.00 0.00 77 1013.5
20260903114504 75 213 0.0 1.0 0.00 0.00 0.00 77 1013.5
20260903114002 75 191 0.0 0.0 0.00 0.00 0.00 77 1013.4
20260903113502 75 191 0.0 0.0 0.00 0.00 0.00 77 1013.4
20260903113006 75 191 0.0 0.0 0.00 0.00 0.00 76 1013.4
20260903112502 75 191 0.0 1.0 0.00 0.00 0.00 76 1013.4
20260903112002 75 191 0.0 1.0 0.00 0.00 0.00 76 1013.4
20260903111504 75 191 0.0 1.0 0.00 0.00 0.00 76 1013.5
20260903111003 75 191 0.0 1.0 0.00 0.00 0.00 76 1013.5
20260903110506 75 191 0.0 1.0 0.00 0.00 0.00 76 1013.5
20260903110004 75 148 0.0 0.0 0.00 0.00 0.00 75 1013.5
20260903105504 75 148 0.0 0.0 0.00 0.00 0.00 75 1013.4
20260903105002 75 148 0.0 0.0 0.00 0.00 0.00 75 1013.5
20260903104504 75 148 0.0 0.0 0.00 0.00 0.00 75 1013.5
20260903104002 75 148 0.0 0.0 0.00 0.00 0.00 75 1013.4
20260903103502 75 148 0.0 0.0 0.00 0.00 0.00 75 1013.4
20260903103004 76 148 0.0 0.0 0.00 0.00 0.00 75 1013.4
20260903102502 76 148 0.0 0.0 0.00 0.00 0.00 75 1013.4
20260903102002 76 148 0.0 0.0 0.00 0.00 0.00 74 1013.4
20260903101503 76 148 0.0 0.0 0.00 0.00 0.00 74 1013.5
20260903101003 76 148 0.0 0.0 0.00 0.00 0.00 73 1013.5
20260903100503 76 148 0.0 0.0 0.00 0.00 0.00 72 1013.5
20260903100005 77 148 0.0 0.0 0.00 0.00 0.00 72 1013.4
20260903095505 77 148 0.0 0.0 0.00 0.00 0.00 72 1013.5
20260903095002 77 148 0.0 0.0 0.00 0.00 0.00 71 1013.4
20260903094505 77 148 0.0 0.0 0.00 0.00 0.00 71 1013.4
20260903094004 77 148 0.0 0.0 0.00 0.00 0.00 71 1013.4
20260903093504 78 148 0.0 0.0 0.00 0.00 0.00 70 1013.4
20260903093003 78 143 0.0 0.0 0.00 0.00 0.00 70 1013.4
20260903092504 78 140 0.0 0.0 0.00 0.00 0.00 69 1013.4
20260903092004 78 292 0.0 0.0 0.00 0.00 0.00 68 1013.4
20260903091506 79 292 0.0 0.0 0.00 0.00 0.00 68 1013.4
20260903091002 79 292 0.0 0.0 0.00 0.00 0.00 68 1013.4
20260903090503 79 161 0.0 2.0 0.00 0.00 0.00 68 1013.3
20260903090014 79 186 0.0 3.0 0.00 0.00 0.00 67 1013.3
20260903085503 80 196 0.0 3.0 0.00 0.00 0.00 66 1013.2
20260903085003 80 274 0.0 3.0 0.00 0.00 0.00 65 1013.2
20260903084504 80 184 0.0 5.0 0.00 0.00 0.00 65 1013.2
20260903084005 80 249 0.0 6.0 0.00 0.00 0.00 65 1013.2
20260903083503 80 221 1.0 6.0 0.00 0.00 0.00 64 1013.1
20260903083006 80 275 0.0 2.0 0.00 0.00 0.00 64 1013.1
20260903082503 80 299 0.0 3.0 0.00 0.00 0.00 64 1013.2
20260903082004 80 178 1.0 4.0 0.00 0.00 0.00 63 1013.1
20260903081506 80 141 1.0 4.0 0.00 0.00 0.00 63 1013.1
20260903081005 80 283 0.0 4.0 0.00 0.00 0.00 63 1013.1
20260903080503 80 211 0.0 4.0 0.00 0.00 0.00 63 1013.1
20260903080006 80 270 0.0 5.0 0.00 0.00 0.00 63 1013.0
20260903075503 80 232 1.0 5.0 0.00 0.00 0.00 63 1013.0
20260903075003 80 103 0.0 4.0 0.00 0.00 0.00 63 1013.1
20260903074508 79 261 0.0 2.0 0.00 0.00 0.00 63 1013.1
20260903074005 79 237 0.0 7.0 0.00 0.00 0.00 63 1013.1
20260903073504 79 265 1.0 7.0 0.00 0.00 0.00 63 1013.1
20260903073015 79 278 0.0 3.0 0.00 0.00 0.00 63 1013.1
20260903072504 79 327 0.0 3.0 0.00 0.00 0.00 63 1013.1
20260903072003 79 175 0.0 0.0 0.00 0.00 0.00 63 1012.9
20260903071516 80 146 0.0 3.0 0.00 0.00 0.00 63 1012.9
20260903071003 80 176 0.0 3.0 0.00 0.00 0.00 62 1012.9
20260903070503 80 176 0.0 3.0 0.00 0.00 0.00 62 1012.9
20260903070007 80 261 0.0 2.0 0.00 0.00 0.00 62 1012.9
20260903065504 80 261 0.0 2.0 0.00 0.00 0.00 62 1012.9
20260903065004 80 261 0.0 2.0 0.00 0.00 0.00 61 1013.0
20260903064509 80 261 0.0 2.0 0.00 0.00 0.00 61 1013.0
20260903064003 80 249 0.0 2.0 0.00 0.00 0.00 61 1012.9
20260903063504 80 249 0.0 2.0 0.00 0.00 0.00 61 1012.9
20260903063011 80 323 0.0 3.0 0.00 0.00 0.00 61 1012.8
20260903062504 80 287 0.0 3.0 0.00 0.00 0.00 60 1012.7
20260903062004 80 287 0.0 5.0 0.00 0.00 0.00 61 1012.7
20260903061509 80 304 0.0 5.0 0.00 0.00 0.00 60 1012.7
20260903061004 81 252 0.0 1.0 0.00 0.00 0.00 60 1012.7
20260903060503 81 216 0.0 0.0 0.00 0.00 0.00 60 1012.7
20260903060012 81 216 0.0 1.0 0.00 0.00 0.00 59 1012.8
20260903055504 81 216 0.0 2.0 0.00 0.00 0.00 59 1012.9
20260903055006 82 216 0.0 2.0 0.00 0.00 0.00 58 1012.8
20260903054508 82 249 0.0 2.0 0.00 0.00 0.00 58 1012.9
20260903054003 82 249 0.0 2.0 0.00 0.00 0.00 57 1012.9
20260903053504 82 275 0.0 2.0 0.00 0.00 0.00 57 1012.9
20260903053012 82 151 0.0 2.0 0.00 0.00 0.00 57 1012.8
20260903052507 82 296 0.0 2.0 0.00 0.00 0.00 57 1012.7
20260903052007 83 165 0.0 3.0 0.00 0.00 0.00 57 1012.7
20260903051510 83 281 0.0 3.0 0.00 0.00 0.00 56 1012.7
20260903051004 83 262 0.0 1.0 0.00 0.00 0.00 56 1012.7
20260903050505 83 233 0.0 1.0 0.00 0.00 0.00 55 1012.7
20260903050024 83 223 0.0 3.0 0.00 0.00 0.00 55 1012.8
20260903045504 84 223 0.0 4.0 0.00 0.00 0.00 55 1012.8
20260903045005 84 282 0.0 4.0 0.00 0.00 0.00 54 1012.8
20260903044511 84 272 0.0 3.0 0.00 0.00 0.00 54 1012.8
20260903044006 84 265 1.0 4.0 0.00 0.00 0.00 54 1012.7
20260903043506 84 276 0.0 4.0 0.00 0.00 0.00 54 1012.7
20260903043014 84 267 0.0 2.0 0.00 0.00 0.00 53 1012.7
20260903042503 85 248 0.0 5.0 0.00 0.00 0.00 53 1012.8
20260903042006 85 248 0.0 5.0 0.00 0.00 0.00 53 1012.8
20260903041513 85 217 0.0 4.0 0.00 0.00 0.00 52 1012.8
20260903041004 85 240 1.0 6.0 0.00 0.00 0.00 52 1012.8
20260903040504 85 261 1.0 6.0 0.00 0.00 0.00 52 1012.8
20260903040012 86 178 0.0 4.0 0.00 0.00 0.00 51 1012.7
20260903035506 86 240 1.0 3.0 0.00 0.00 0.00 51 1012.7
20260903035005 86 130 0.0 8.0 0.00 0.00 0.00 51 1012.8
20260903034520 86 319 1.0 8.0 0.00 0.00 0.00 50 1012.8
20260903034006 86 195 1.0 8.0 0.00 0.00 0.00 50 1012.8
20260903033507 86 259 1.0 7.0 0.00 0.00 0.00 51 1012.7
20260903033012 85 227 1.0 7.0 0.00 0.00 0.00 51 1012.8
20260903032504 85 277 2.0 7.0 0.00 0.00 0.00 52 1012.7
20260903032008 84 278 0.0 3.0 0.00 0.00 0.00 53 1012.7
20260903031515 84 261 0.0 3.0 0.00 0.00 0.00 54 1012.7
20260903031004 84 202 0.0 3.0 0.00 0.00 0.00 54 1012.7
20260903030508 84 202 0.0 1.0 0.00 0.00 0.00 54 1012.8
20260903030014 84 202 0.0 0.0 0.00 0.00 0.00 53 1012.7
20260903025510 84 202 0.0 3.0 0.00 0.00 0.00 53 1012.7
20260903025005 84 202 0.0 3.0 0.00 0.00 0.00 53 1012.7
20260903024514 84 58 0.0 2.0 0.00 0.00 0.00 53 1012.6
20260903024006 84 58 0.0 2.0 0.00 0.00 0.00 52 1012.5
20260903023510 84 184 0.0 4.0 0.00 0.00 0.00 53 1012.5
20260903023017 85 184 0.0 4.0 0.00 0.00 0.00 53 1012.5
20260903022503 85 200 0.0 0.0 0.00 0.00 0.00 52 1012.4
20260903022005 85 200 0.0 0.0 0.00 0.00 0.00 52 1012.4
20260903021508 85 200 0.0 0.0 0.00 0.00 0.00 51 1012.2
20260903021004 86 200 0.0 0.0 0.00 0.00 0.00 52 1012.2
20260903020504 86 200 0.0 0.0 0.00 0.00 0.00 51 1012.0
20260903020010 86 200 0.0 0.0 0.00 0.00 0.00 50 1012.0
20260903015509 87 200 0.0 0.0 0.00 0.00 0.00 49 1011.9
20260903015007 87 200 0.0 0.0 0.00 0.00 0.00 49 1011.9
20260903014517 88 200 0.0 0.0 0.00 0.00 0.00 48 1011.8
20260903014009 88 200 0.0 0.0 0.00 0.00 0.00 48 1011.7
20260903013506 88 200 0.0 0.0 0.00 0.00 0.00 47 1011.7
20260903013016 89 200 0.0 1.0 0.00 0.00 0.00 47 1011.6
20260903012506 89 200 0.0 1.0 0.00 0.00 0.00 46 1011.6
20260903012006 90 153 0.0 0.0 0.00 0.00 0.00 45 1011.6
20260903011518 90 229 0.0 0.0 0.00 0.00 0.00 45 1011.5
20260903011003 91 262 0.0 2.0 0.00 0.00 0.00 45 1011.5
20260903010504 91 158 0.0 2.0 0.00 0.00 0.00 44 1011.5
20260903010010 91 274 0.0 3.0 0.00 0.00 0.00 44 1011.5
20260903005504 92 225 0.0 3.0 0.00 0.00 0.00 43 1011.5
20260903005008 92 250 0.0 3.0 0.00 0.00 0.00 43 1011.5
20260903004518 93 257 0.0 6.0 0.00 0.00 0.00 42 1011.4
20260903004008 93 211 0.0 6.0 0.00 0.00 0.00 41 1011.5
20260903003509 93 284 0.0 5.0 0.00 0.00 0.00 41 1011.5
20260903003017 93 239 1.0 6.0 0.00 0.00 0.00 41 1011.5
20260903002511 94 132 1.0 6.0 0.00 0.00 0.00 40 1011.5
20260903002010 94 279 0.0 7.0 0.00 0.00 0.00 41 1011.5
20260903001520 94 174 2.0 7.0 0.00 0.00 0.00 39 1011.6
20260903001009 95 267 2.0 8.0 0.00 0.00 0.00 40 1011.5
20260903000511 95 192 2.0 8.0 0.00 0.00 0.00 39 1011.5
20260903000017 95 203 1.0 6.0 0.00 0.00 0.00 40 1011.5
20260902235510 95 167 0.0 7.0 0.00 0.00 0.00 39 1011.6
20260902235004 96 255 1.0 7.0 0.00 0.00 0.00 38 1011.6
20260902234509 96 283 2.0 6.0 0.00 0.00 0.00 38 1011.5
20260902234006 96 184 1.0 6.0 0.00 0.00 0.00 39 1011.6
20260902233508 97 315 2.0 8.0 0.00 0.00 0.00 38 1011.5
20260902233019 97 220 2.0 9.0 0.00 0.00 0.00 37 1011.5
20260902232509 97 225 2.0 9.0 0.00 0.00 0.00 36 1011.5
20260902232008 98 157 3.0 8.0 0.00 0.00 0.00 35 1011.5
20260902231525 98 152 3.0 8.0 0.00 0.00 0.00 36 1011.6
20260902231013 98 268 2.0 11.0 0.00 0.00 0.00 36 1011.6
20260902230517 99 199 3.0 11.0 0.00 0.00 0.00 34 1011.6
20260902230022 99 266 3.0 10.0 0.00 0.00 0.00 35 1011.6
20260902225510 99 252 1.0 9.0 0.00 0.00 0.00 36 1011.5
20260902225012 99 267 2.0 11.0 0.00 0.00 0.00 33 1011.6
20260902224525 99 244 1.0 11.0 0.00 0.00 0.00 33 1011.7
20260902224010 99 243 2.0 8.0 0.00 0.00 0.00 33 1011.7
20260902223509 99 257 2.0 9.0 0.00 0.00 0.00 33 1011.6
20260902223013 99 298 3.0 10.0 0.00 0.00 0.00 33 1011.7
20260902222509 99 318 3.0 10.0 0.00 0.00 0.00 34 1011.8
20260902222009 99 165 3.0 9.0 0.00 0.00 0.00 33 1011.9
20260902221523 100 237 3.0 8.0 0.00 0.00 0.00 33 1011.9
20260902221010 100 260 4.0 8.0 0.00 0.00 0.00 33 1011.9
20260902220510 100 282 2.0 7.0 0.00 0.00 0.00 34 1011.9
20260902220028 100 296 2.0 10.0 0.00 0.00 0.00 34 1011.9
20260902215510 100 247 2.0 10.0 0.00 0.00 0.00 33 1012.0
20260902215011 100 76 2.0 9.0 0.00 0.00 0.00 34 1012.1
20260902214529 100 257 2.0 9.0 0.00 0.00 0.00 33 1012.1
20260902214010 99 257 2.0 11.0 0.00 0.00 0.00 34 1012.1
20260902213510 100 163 2.0 11.0 0.00 0.00 0.00 33 1012.2
20260902213029 101 281 1.0 6.0 0.00 0.00 0.00 33 1012.3
20260902212512 100 276 1.0 10.0 0.00 0.00 0.00 34 1012.3
20260902212005 100 274 3.0 10.0 0.00 0.00 0.00 34 1012.3
20260902211516 100 281 3.0 9.0 0.00 0.00 0.00 32 1012.4
20260902211007 100 290 3.0 9.0 0.00 0.00 0.00 33 1012.5
20260902210509 100 242 2.0 11.0 0.00 0.00 0.00 32 1012.5
20260902210029 100 230 1.0 11.0 0.00 0.00 0.00 33 1012.6
20260902205509 99 44 3.0 9.0 0.00 0.00 0.00 32 1012.7
20260902205014 100 267 2.0 7.0 0.00 0.00 0.00 33 1012.7
20260902204526 100 269 0.0 9.0 0.00 0.00 0.00 33 1012.8
20260902204012 100 293 3.0 9.0 0.00 0.00 0.00 32 1012.9
20260902203512 100 312 2.0 9.0 0.00 0.00 0.00 33 1012.9
20260902203033 99 258 2.0 9.0 0.00 0.00 0.00 35 1013.0
20260902202513 99 261 2.0 8.0 0.00 0.00 0.00 35 1013.0
20260902202014 100 87 2.0 9.0 0.00 0.00 0.00 35 1013.2
20260902201527 100 250 2.0 9.0 0.00 0.00 0.00 36 1013.2
20260902201013 100 250 3.0 11.0 0.00 0.00 0.00 35 1013.2
20260902200508 100 271 4.0 11.0 0.00 0.00 0.00 35 1013.3
20260902200016 100 300 2.0 9.0 0.00 0.00 0.00 37 1013.4
20260902195508 100 272 4.0 9.0 0.00 0.00 0.00 36 1013.3
20260902195009 100 257 3.0 8.0 0.00 0.00 0.00 35 1013.5
20260902194528 100 287 3.0 9.0 0.00 0.00 0.00 37 1013.6
20260902194010 99 270 2.0 9.0 0.00 0.00 0.00 36 1013.6
20260902193516 99 247 3.0 9.0 0.00 0.00 0.00 37 1013.7
20260902193029 99 303 2.0 10.0 0.00 0.00 0.00 38 1013.8
20260902192514 99 143 3.0 10.0 0.00 0.00 0.00 36 1013.9
20260902192012 99 300 3.0 10.0 0.00 0.00 0.00 36 1013.9
20260902191538 99 217 2.0 8.0 0.00 0.00 0.00 37 1014.0
20260902191019 99 179 3.0 10.0 0.00 0.00 0.00 38 1014.0
20260902190521 99 259 3.0 10.0 0.00 0.00 0.00 38 1014.1
20260902190029 98 205 2.0 12.0 0.00 0.00 0.00 39 1014.2
20260902185516 98 274 3.0 12.0 0.00 0.00 0.00 39 1014.2
20260902185016 98 269 1.0 10.0 0.00 0.00 0.00 40 1014.3
20260902184533 98 271 3.0 10.0 0.00 0.00 0.00 40 1014.4
20260902184011 98 167 3.0 10.0 0.00 0.00 0.00 40 1014.4
20260902183511 98 261 4.0 10.0 0.00 0.00 0.00 41 1014.5
20260902183027 98 295 2.0 10.0 0.00 0.00 0.00 42 1014.5
20260902182515 97 242 3.0 11.0 0.00 0.00 0.00 41 1014.6
20260902182014 97 254 3.0 11.0 0.00 0.00 0.00 41 1014.7
20260902181531 97 255 3.0 11.0 0.00 0.00 0.00 41 1014.7
20260902181015 97 268 5.0 11.0 0.00 0.00 0.00 41 1014.9
20260902180503 97 273 4.0 11.0 0.00 0.00 0.00 41 1014.8
20260902180010 97 286 3.0 11.0 0.00 0.00 0.00 43 1015.0
20260902175504 97 257 3.0 9.0 0.00 0.00 0.00 42 1015.0
20260902175010 96 271 2.0 8.0 0.00 0.00 0.00 42 1015.0
20260902174516 96 290 2.0 11.0 0.00 0.00 0.00 43 1015.2
20260902174010 96 255 3.0 11.0 0.00 0.00 0.00 42 1015.3
20260902173508 96 198 3.0 11.0 0.00 0.00 0.00 44 1015.3
20260902173022 96 250 2.0 9.0 0.00 0.00 0.00 45 1015.3
20260902172511 95 340 4.0 9.0 0.00 0.00 0.00 43 1015.4
20260902172012 95 248 2.0 9.0 0.00 0.00 0.00 45 1015.4
20260902171506 95 257 4.0 11.0 0.00 0.00 0.00 46 1015.5
20260902171006 94 126 3.0 11.0 0.00 0.00 0.00 46 1015.5
20260902170503 94 309 3.0 13.0 0.00 0.00 0.00 46 1015.6
20260902170007 94 38 2.0 13.0 0.00 0.00 0.00 46 1015.6
20260902165505 94 238 2.0 8.0 0.00 0.00 0.00 49 1015.7
20260902165005 93 146 3.0 8.0 0.00 0.00 0.00 47 1015.8
20260902164511 93 269 2.0 9.0 0.00 0.00 0.00 48 1015.8
20260902164010 93 44 3.0 10.0 0.00 0.00 0.00 48 1015.9
20260902163506 93 246 3.0 12.0 0.00 0.00 0.00 49 1015.9
20260902163015 92 256 4.0 12.0 0.00 0.00 0.00 48 1016.0
20260902162507 93 252 3.0 9.0 0.00 0.00 0.00 49 1016.0
20260902162009 92 202 2.0 10.0 0.00 0.00 0.00 51 1016.0
20260902161527 92 205 2.0 10.0 0.00 0.00 0.00 50 1016.1
20260902161011 91 156 1.0 9.0 0.00 0.00 0.00 52 1016.1
20260902160516 91 232 3.0 9.0 0.00 0.00 0.00 52 1016.1